CW9417 Weather Reports


Display with metric or nautical units.
time (UTC)temp
F
wind
direction
speed
MPH
gust
MPH
rain 1hr
in
rain 24hr
in
rain mn
in
humidity
%
barometer
mb
20260508163808 63 91 1.0 4.0 0.00 0.00 0.00 53 1018.1
20260508163308 63 32 1.0 3.0 0.00 0.00 0.00 53 1018.1
20260508162807 63 36 1.0 3.0 0.00 0.00 0.00 53 1018.1
20260508162307 63 110 1.0 2.0 0.00 0.00 0.00 53 1018.1
20260508162026 63 107 1.0 4.0 0.00 0.00 0.00 52 1018.1
20260508161305 63 115 1.0 4.0 0.00 0.00 0.00 53 1018.1
20260508160804 63 118 1.0 5.0 0.00 0.00 0.00 53 1018.0
20260508160402 63 20 2.0 5.0 0.00 0.00 0.00 53 1018.0
20260508155305 64 110 2.0 5.0 0.00 0.00 0.00 52 1018.0
20260508154802 64 111 2.0 8.0 0.00 0.00 0.00 52 1017.9
20260508154259 64 314 2.0 8.0 0.00 0.00 0.00 49 1018.0
20260508153759 65 113 1.0 4.0 0.00 0.00 0.00 51 1018.0
20260508153301 65 99 2.0 9.0 0.00 0.00 0.00 51 1018.0
20260508152759 65 43 2.0 9.0 0.00 0.00 0.00 51 1018.0
20260508152300 65 112 2.0 6.0 0.00 0.00 0.00 52 1018.1
20260508151759 65 127 2.0 8.0 0.00 0.00 0.00 51 1018.1
20260508151259 65 233 2.0 8.0 0.00 0.00 0.00 50 1018.1
20260508150800 65 24 2.0 8.0 0.00 0.00 0.00 50 1018.1
20260508150259 65 18 2.0 8.0 0.00 0.00 0.00 48 1018.1
20260508145803 66 37 2.0 6.0 0.00 0.00 0.00 49 1018.1
20260508145300 66 229 2.0 6.0 0.00 0.00 0.00 49 1018.2
20260508144759 66 115 2.0 6.0 0.00 0.00 0.00 50 1018.1
20260508144300 66 129 2.0 6.0 0.00 0.00 0.00 51 1018.1
20260508144019 65 135 2.0 8.0 0.00 0.00 0.00 52 1018.2
20260508143301 65 32 2.0 8.0 0.00 0.00 0.00 51 1018.2
20260508142815 65 1 2.0 8.0 0.00 0.00 0.00 51 1018.2
20260508142300 65 167 3.0 7.0 0.00 0.00 0.00 53 1018.3
20260508141759 65 170 3.0 7.0 0.00 0.00 0.00 52 1018.3
20260508141301 65 130 3.0 7.0 0.00 0.00 0.00 52 1018.3
20260508140754 65 61 3.0 6.0 0.00 0.00 0.00 52 1018.4
20260508140249 65 115 3.0 7.0 0.00 0.00 0.00 53 1018.4
20260508135743 65 96 3.0 7.0 0.00 0.00 0.00 52 1018.5
20260508135237 65 59 2.0 12.0 0.00 0.00 0.00 53 1018.5
20260508134731 65 126 2.0 12.0 0.00 0.00 0.00 53 1018.5
20260508134225 65 75 2.0 8.0 0.00 0.00 0.00 55 1018.5
20260508133719 64 124 3.0 8.0 0.00 0.00 0.00 54 1018.5
20260508133213 64 144 4.0 8.0 0.00 0.00 0.00 55 1018.5
20260508132712 64 84 3.0 7.0 0.00 0.00 0.00 55 1018.5
20260508132210 64 101 3.0 8.0 0.00 0.00 0.00 55 1018.5
20260508132200 64 38 3.0 8.0 0.00 0.00 0.00 56 1018.5
20260508131459 64 345 3.0 9.0 0.00 0.00 0.00 55 1018.6
20260508130712 64 117 3.0 9.0 0.00 0.00 0.00 55 1018.6
20260508130704 64 112 3.0 9.0 0.00 0.00 0.00 56 1018.6
20260508125711 64 115 3.0 7.0 0.00 0.00 0.00 56 1018.6
20260508125212 64 79 3.0 8.0 0.00 0.00 0.00 56 1018.6
20260508124708 64 68 3.0 8.0 0.00 0.00 0.00 56 1018.6
20260508124211 64 117 4.0 12.0 0.00 0.00 0.00 56 1018.7
20260508123708 64 21 3.0 12.0 0.00 0.00 0.00 56 1018.7
20260508123207 64 98 3.0 8.0 0.00 0.00 0.00 57 1018.7
20260508122707 64 97 2.0 8.0 0.00 0.00 0.00 57 1018.7
20260508122208 64 111 2.0 6.0 0.00 0.00 0.00 57 1018.6
20260508121707 63 115 4.0 8.0 0.00 0.00 0.00 55 1018.6
20260508121426 63 56 4.0 8.0 0.00 0.00 0.00 57 1018.7
20260508120704 63 127 3.0 9.0 0.00 0.00 0.00 57 1018.6
20260508120644 63 68 3.0 9.0 0.00 0.00 0.00 55 1018.7
20260508115648 63 115 4.0 9.0 0.00 0.00 0.00 56 1018.7
20260508115402 62 115 3.0 9.0 0.00 0.00 0.00 55 1018.8
20260508114636 62 123 4.0 8.0 0.00 0.00 0.00 57 1018.7
20260508114130 62 90 4.0 9.0 0.00 0.00 0.00 56 1018.7
20260508113624 61 132 5.0 10.0 0.00 0.00 0.00 57 1018.8
20260508113119 62 108 4.0 10.0 0.00 0.00 0.00 56 1018.8
20260508112612 62 131 3.0 9.0 0.00 0.00 0.00 58 1018.8
20260508112107 62 85 4.0 9.0 0.00 0.00 0.00 57 1018.9
20260508111602 61 75 4.0 9.0 0.00 0.00 0.00 58 1018.9
20260508111056 61 98 4.0 10.0 0.00 0.00 0.00 58 1018.9
20260508110550 60 80 4.0 10.0 0.00 0.00 0.00 59 1018.9
20260508110057 61 125 4.0 9.0 0.00 0.00 0.00 58 1018.9
20260508105537 61 115 3.0 7.0 0.00 0.00 0.00 58 1018.9
20260508105031 61 45 3.0 8.0 0.00 0.00 0.00 59 1018.9
20260508104528 60 99 4.0 9.0 0.00 0.00 0.00 58 1019.1
20260508104019 60 111 3.0 9.0 0.00 0.00 0.00 59 1019.0
20260508103516 60 132 3.0 9.0 0.00 0.00 0.00 59 1019.0
20260508103236 60 112 4.0 9.0 0.00 0.00 0.00 58 1019.0
20260508102501 60 118 4.0 8.0 0.00 0.00 0.00 58 1019.0
20260508101958 60 45 3.0 9.0 0.00 0.00 0.00 58 1019.1
20260508101450 60 72 4.0 9.0 0.00 0.00 0.00 56 1019.1
20260508100944 59 121 5.0 9.0 0.00 0.00 0.00 57 1019.2
20260508100440 59 127 4.0 8.0 0.00 0.00 0.00 55 1019.2
20260508095930 59 96 4.0 8.0 0.00 0.00 0.00 55 1019.2
20260508095918 58 66 5.0 9.0 0.00 0.00 0.00 53 1019.2
20260508094918 58 135 5.0 9.0 0.00 0.00 0.00 54 1019.2
20260508094413 58 127 4.0 9.0 0.00 0.00 0.00 53 1019.2
20260508093909 58 115 3.0 8.0 0.00 0.00 0.00 53 1019.2
20260508093401 58 115 3.0 11.0 0.00 0.00 0.00 49 1019.3
20260508093119 58 51 4.0 11.0 0.00 0.00 0.00 50 1019.2
20260508092349 58 84 4.0 9.0 0.00 0.00 0.00 51 1019.2
20260508091843 58 86 4.0 9.0 0.00 0.00 0.00 49 1019.2
20260508091338 58 76 4.0 9.0 0.00 0.00 0.00 52 1019.2
20260508090831 58 100 4.0 11.0 0.00 0.00 0.00 48 1019.2
20260508090328 57 101 4.0 11.0 0.00 0.00 0.00 49 1019.2
20260508085821 57 91 4.0 11.0 0.00 0.00 0.00 47 1019.1
20260508085536 57 112 4.0 9.0 0.00 0.00 0.00 47 1019.2
20260508084818 57 86 3.0 9.0 0.00 0.00 0.00 45 1019.1
20260508084317 57 89 4.0 8.0 0.00 0.00 0.00 39 1019.1
20260508083829 56 90 4.0 9.0 0.00 0.00 0.00 38 1019.2
20260508083808 56 105 4.0 9.0 0.00 0.00 0.00 32 1019.2
20260508082900 55 112 3.0 7.0 0.00 0.00 0.00 24 1019.2
20260508082831 56 102 3.0 7.0 0.00 0.00 0.00 30 1019.1
20260508082045 55 108 3.0 7.0 0.00 0.00 0.00 18 1019.2
20260508081548 55 88 3.0 8.0 0.00 0.00 0.00 16 1019.2
20260508080818 55 112 4.0 8.0 0.00 0.00 0.00 16 1019.2
20260508080317 55 110 4.0 8.0 0.00 0.00 0.00 16 1019.2
20260508080034 55 108 4.0 9.0 0.00 0.00 0.00 18 1019.2
20260508075540 55 133 3.0 9.0 0.00 0.00 0.00 17 1019.2
20260508074819 55 99 4.0 9.0 0.00 0.00 0.00 14 1019.2
20260508074812 54 160 3.0 9.0 0.00 0.00 0.00 16 1019.2
20260508073818 54 113 3.0 8.0 0.00 0.00 0.00 11 1019.2
20260508073314 54 112 2.0 8.0 0.00 0.00 0.00 6 1019.3
20260508073034 53 115 3.0 8.0 0.00 0.00 0.00 4 1019.2
20260508072312 53 24 4.0 7.0 0.00 0.00 0.00 1 1019.2
20260508071813 53 113 4.0 7.0 0.00 0.00 0.00 1 1019.2
20260508071312 53 97 3.0 7.0 0.00 0.00 0.00 1 1019.1
20260508070816 52 88 2.0 6.0 0.00 0.00 0.00 1 1019.1
20260508070313 52 94 2.0 6.0 0.00 0.00 0.00 1 1019.1
20260508065812 52 116 2.0 6.0 0.00 0.00 0.00 1 1019.0
20260508065313 52 110 2.0 6.0 0.00 0.00 0.00 1 1019.0
20260508065032 52 84 2.0 5.0 0.00 0.00 0.00 1 1018.9
20260508064310 51 106 3.0 6.0 0.00 0.00 0.00 1 1018.9
20260508063809 51 96 3.0 7.0 0.00 0.00 0.00 1 1018.9
20260508063311 51 57 3.0 7.0 0.00 0.00 0.00 1 1018.9
20260508062812 51 102 3.0 7.0 0.00 0.00 0.00 1 1018.9
20260508062309 51 108 3.0 7.0 0.00 0.00 0.00 1 1018.8
20260508061810 51 109 2.0 6.0 0.00 0.00 0.00 1 1018.8
20260508061313 51 109 2.0 5.0 0.00 0.00 0.00 1 1018.8
20260508060806 51 103 2.0 7.0 0.00 0.00 0.00 1 1018.8
20260508060303 51 108 2.0 7.0 0.00 0.00 0.00 1 1018.8
20260508055800 51 109 2.0 6.0 0.00 0.00 0.00 1 1018.7
20260508055306 51 117 2.0 6.0 0.00 0.00 0.00 1 1018.7
20260508054802 51 57 2.0 5.0 0.00 0.00 0.00 1 1018.7
20260508054300 51 103 2.0 6.0 0.00 0.00 0.00 1 1018.6
20260508053800 51 113 2.0 6.0 0.00 0.00 0.00 1 1018.6
20260508053303 51 97 2.0 6.0 0.00 0.00 0.00 1 1018.6
20260508052800 51 112 3.0 6.0 0.00 0.00 0.00 1 1018.5
20260508052300 51 122 2.0 6.0 0.00 0.00 0.00 1 1018.5
20260508051801 51 143 2.0 5.0 0.00 0.00 0.00 1 1018.5
20260508051302 51 113 2.0 4.0 0.00 0.00 0.00 1 1018.4
20260508050800 51 95 2.0 5.0 0.00 0.00 0.00 1 1018.4
20260508050304 51 106 2.0 5.0 0.00 0.00 0.00 1 1018.3
20260508050017 51 105 2.0 5.0 0.00 0.00 0.00 1 1018.3
20260508045258 51 83 2.0 5.0 0.00 0.00 0.00 1 1018.3
20260508044758 51 112 1.0 5.0 0.00 0.00 0.00 1 1018.2
20260508044257 51 119 1.0 4.0 0.00 0.00 0.00 1 1018.2
20260508043758 51 101 1.0 4.0 0.00 0.00 0.00 1 1018.2
20260508043256 51 115 1.0 4.0 0.00 0.00 0.00 1 1018.2
20260508042800 51 87 1.0 4.0 0.00 0.00 0.00 1 1018.2
20260508042515 51 103 1.0 4.0 0.00 0.00 0.00 1 1018.1
20260508041811 51 118 1.0 4.0 0.00 0.00 0.00 1 1018.1
20260508041537 51 64 0.0 4.0 0.00 0.00 0.00 1 1018.1
20260508040757 51 103 1.0 5.0 0.00 0.00 0.00 1 1018.1
20260508040258 51 102 1.0 5.0 0.00 0.00 0.00 1 1018.1
20260508035756 51 103 1.0 4.0 0.00 0.00 0.00 1 1018.0
20260508035258 51 94 1.0 3.0 0.00 0.00 0.00 1 1018.1
20260508034759 51 113 2.0 5.0 0.00 0.00 0.00 1 1018.0
20260508034257 51 122 2.0 5.0 0.00 0.00 0.00 1 1018.1
20260508033757 51 101 2.0 5.0 0.00 0.00 0.00 1 1018.0
20260508033257 51 82 1.0 4.0 0.00 0.00 0.00 1 1018.0
20260508033013 51 64 1.0 4.0 0.00 0.00 0.00 1 1018.0
20260508032245 51 116 1.0 4.0 0.00 0.00 0.00 1 1018.0
20260508031739 51 112 1.0 4.0 0.00 0.00 0.00 1 1018.0
20260508031502 51 115 2.0 5.0 0.00 0.00 0.00 1 1017.9
20260508030726 51 124 2.0 5.0 0.00 0.00 0.00 1 1017.9
20260508030219 51 91 1.0 4.0 0.00 0.00 0.00 1 1017.9
20260508025717 51 109 0.0 4.0 0.00 0.00 0.00 1 1017.8
20260508025214 51 113 1.0 4.0 0.00 0.00 0.00 1 1017.9
20260508024711 51 111 1.0 4.0 0.00 0.00 0.00 1 1017.8
20260508024212 51 87 1.0 5.0 0.00 0.00 0.00 1 1017.8
20260508023709 51 117 1.0 5.0 0.00 0.00 0.00 1 1017.9
20260508023206 51 122 2.0 8.0 0.00 0.00 0.00 1 1017.9
20260508022704 51 55 2.0 8.0 0.00 0.00 0.00 1 1017.9
20260508022207 51 101 2.0 5.0 0.00 0.00 0.00 1 1017.9
20260508021702 51 133 1.0 4.0 0.00 0.00 0.00 1 1017.9
20260508021202 51 107 1.0 4.0 0.00 0.00 0.00 1 1017.9
20260508020703 51 129 2.0 6.0 0.00 0.00 0.00 1 1018.0
20260508020419 51 121 2.0 6.0 0.00 0.00 0.00 1 1018.0
20260508015657 51 72 2.0 6.0 0.00 0.00 0.00 1 1018.0
20260508015158 52 117 2.0 4.0 0.00 0.00 0.00 1 1017.9
20260508014658 52 85 1.0 5.0 0.00 0.00 0.00 1 1017.9
20260508014200 52 92 2.0 5.0 0.00 0.00 0.00 1 1017.9
20260508013659 52 95 2.0 5.0 0.00 0.00 0.00 1 1017.8
20260508013159 52 114 1.0 5.0 0.00 0.00 0.00 1 1017.9
20260508012700 52 93 1.0 5.0 0.00 0.00 0.00 1 1017.9
20260508012159 52 94 2.0 5.0 0.00 0.00 0.00 1 1017.9
20260508011653 52 124 1.0 5.0 0.00 0.00 0.00 1 1018.0
20260508011412 52 121 1.0 5.0 0.00 0.00 0.00 1 1017.9
20260508010903 52 100 1.0 5.0 0.00 0.00 0.00 1 1017.9
20260508010135 52 120 1.0 5.0 0.00 0.00 0.00 1 1017.9
20260508005630 52 116 1.0 5.0 0.00 0.00 0.00 1 1017.9
20260508005622 52 84 1.0 3.0 0.00 0.00 0.00 1 1017.9
20260508004618 52 110 1.0 3.0 0.00 0.00 0.00 1 1018.0
20260508004113 52 112 1.0 3.0 0.00 0.00 0.00 1 1018.0
20260508003607 52 120 1.0 5.0 0.00 0.00 0.00 1 1018.0
20260508003113 53 101 1.0 5.0 0.00 0.00 0.00 1 1018.0
20260508002553 53 113 1.0 4.0 0.00 0.00 0.00 1 1017.9
20260508002049 53 109 1.0 6.0 0.00 0.00 0.00 1 1018.0
20260508001543 53 103 1.0 6.0 0.00 0.00 0.00 1 1017.9
20260508001038 53 116 1.0 2.0 0.00 0.00 0.00 1 1017.9
20260508000758 53 111 1.0 4.0 0.00 0.00 0.00 1 1017.9
20260508000027 53 113 1.0 5.0 0.00 0.00 0.00 1 1017.9
20260507235520 53 109 2.0 6.0 0.00 0.00 0.00 2 1017.9
20260507235011 53 109 2.0 6.0 0.00 0.00 0.00 6 1018.0
20260507234503 54 109 1.0 4.0 0.00 0.00 0.00 7 1018.0
20260507234000 54 114 1.0 4.0 0.00 0.00 0.00 8 1018.0
20260507233451 54 113 2.0 5.0 0.00 0.00 0.00 11 1018.0
20260507232947 54 94 2.0 5.0 0.00 0.00 0.00 12 1018.1
20260507232446 54 103 2.0 5.0 0.00 0.00 0.00 13 1018.1
20260507232207 54 122 2.0 7.0 0.00 0.00 0.00 14 1018.1
20260507231446 54 121 2.0 7.0 0.00 0.00 0.00 9 1018.1
20260507230945 54 84 1.0 6.0 0.00 0.00 0.00 4 1018.1
20260507230448 54 117 1.0 3.0 0.00 0.00 0.00 1 1018.1
20260507225944 54 113 0.0 3.0 0.00 0.00 0.00 1 1018.1
20260507225444 54 92 0.0 3.0 0.00 0.00 0.00 3 1018.0
20260507224941 54 105 1.0 3.0 0.00 0.00 0.00 5 1018.0
20260507224439 55 83 1.0 3.0 0.00 0.00 0.00 7 1018.0
20260507223939 55 105 1.0 4.0 0.00 0.00 0.00 7 1018.0
20260507223440 55 118 1.0 4.0 0.00 0.00 0.00 11 1017.9
20260507222937 55 82 0.0 5.0 0.00 0.00 0.00 12 1017.9
20260507222533 55 96 0.0 5.0 0.00 0.00 0.00 15 1018.0
20260507221436 56 97 0.0 3.0 0.00 0.00 0.00 15 1018.0
20260507220935 56 110 1.0 3.0 0.00 0.00 0.00 14 1018.0
20260507220433 56 90 2.0 6.0 0.00 0.00 0.00 15 1017.9
20260507215937 56 105 1.0 6.0 0.00 0.00 0.00 12 1017.9
20260507215431 56 114 1.0 2.0 0.00 0.00 0.00 8 1017.9
20260507214925 56 91 1.0 3.0 0.00 0.00 0.00 7 1017.9
20260507214419 56 122 0.0 3.0 0.00 0.00 0.00 8 1017.9
20260507213916 55 115 0.0 2.0 0.00 0.00 0.00 9 1017.9
20260507213407 55 100 1.0 7.0 0.00 0.00 0.00 9 1017.9
20260507212901 55 63 1.0 7.0 0.00 0.00 0.00 9 1017.9
20260507212354 55 104 1.0 8.0 0.00 0.00 0.00 4 1017.9
20260507211849 55 27 1.0 8.0 0.00 0.00 0.00 2 1017.8
20260507211833 55 105 2.0 6.0 0.00 0.00 0.00 1 1017.8
20260507210839 55 58 1.0 5.0 0.00 0.00 0.00 1 1017.9
20260507210331 55 105 1.0 4.0 0.00 0.00 0.00 1 1017.9
20260507205826 55 104 2.0 8.0 0.00 0.00 0.00 6 1017.9
20260507205320 55 49 2.0 8.0 0.00 0.00 0.00 11 1017.8
20260507204811 55 27 1.0 7.0 0.00 0.00 0.00 15 1017.9
20260507204306 55 110 1.0 6.0 0.00 0.00 0.00 18 1017.8
20260507203801 55 48 1.0 6.0 0.00 0.00 0.00 23 1017.8
20260507203255 55 127 1.0 3.0 0.00 0.00 0.00 28 1017.8
20260507203248 55 24 1.0 4.0 0.00 0.00 0.00 31 1017.7
20260507202245 56 139 1.0 4.0 0.00 0.00 0.00 36 1017.7
20260507201735 56 90 0.0 4.0 0.00 0.00 0.00 40 1017.7
20260507201230 56 56 0.0 4.0 0.00 0.00 0.00 44 1017.6
20260507200723 56 115 0.0 4.0 0.00 0.00 0.00 47 1017.5
20260507200216 56 98 1.0 5.0 0.00 0.00 0.00 49 1017.5
20260507195711 56 27 2.0 7.0 0.00 0.00 0.00 52 1017.5
20260507195425 56 25 2.0 7.0 0.00 0.00 0.00 54 1017.4
20260507194703 56 46 2.0 6.0 0.00 0.00 0.00 56 1017.4
20260507194154 56 57 1.0 4.0 0.00 0.00 0.00 57 1017.4
20260507193649 56 36 1.0 4.0 0.00 0.00 0.00 58 1017.4
20260507193144 57 127 1.0 5.0 0.00 0.00 0.00 58 1017.3
20260507192636 57 89 1.0 8.0 0.00 0.00 0.00 59 1017.3
20260507192347 57 115 2.0 8.0 0.00 0.00 0.00 58 1017.3
20260507191624 57 309 2.0 8.0 0.00 0.00 0.00 58 1017.2
20260507191118 57 122 2.0 8.0 0.00 0.00 0.00 58 1017.2
20260507190613 57 52 2.0 8.0 0.00 0.00 0.00 58 1017.3
20260507190552 58 66 2.0 8.0 0.00 0.00 0.00 58 1017.2
20260507185613 58 73 1.0 8.0 0.00 0.00 0.00 58 1017.2
20260507185113 58 121 1.0 7.0 0.00 0.00 0.00 58 1017.1
20260507184841 58 124 1.0 5.0 0.00 0.00 0.00 58 1017.2
20260507184341 58 39 1.0 6.0 0.00 0.00 0.00 58 1017.1
20260507183828 59 100 1.0 6.0 0.00 0.00 0.00 58 1017.1
20260507183111 59 105 1.0 6.0 0.00 0.00 0.00 58 1017.1
20260507182611 59 209 2.0 7.0 0.00 0.00 0.00 58 1017.0
20260507182110 60 98 3.0 8.0 0.00 0.00 0.00 58 1017.0
20260507181611 60 39 3.0 8.0 0.00 0.00 0.00 57 1017.0
20260507181110 61 17 2.0 8.0 0.00 0.00 0.00 57 1017.0
20260507180610 61 34 1.0 7.0 0.00 0.00 0.00 56 1017.0
20260507180113 62 56 1.0 4.0 0.00 0.00 0.00 56 1017.0
20260507175610 62 145 1.0 4.0 0.00 0.00 0.00 57 1017.0
20260507175112 61 116 2.0 6.0 0.00 0.00 0.00 57 1017.0
20260507174610 61 151 2.0 8.0 0.00 0.00 0.00 57 1017.0
20260507174110 62 149 1.0 8.0 0.00 0.00 0.00 56 1017.0
20260507173605 62 75 2.0 5.0 0.00 0.00 0.00 55 1016.9
20260507173057 62 254 2.0 5.0 0.00 0.00 0.00 55 1017.0
20260507172554 62 247 1.0 4.0 0.00 0.00 0.00 56 1017.0
20260507172046 62 148 2.0 6.0 0.00 0.00 0.00 55 1016.9
20260507171547 62 82 2.0 7.0 0.00 0.00 0.00 55 1016.8
20260507171058 61 42 2.0 7.0 0.00 0.00 0.00 55 1016.9
20260507170546 61 49 2.0 7.0 0.00 0.00 0.00 55 1016.8
20260507170100 61 77 2.0 7.0 0.00 0.00 0.00 55 1016.9
20260507165544 61 49 2.0 8.0 0.00 0.00 0.00 55 1016.9
20260507165044 62 34 2.0 8.0 0.00 0.00 0.00 54 1016.8
20260507164805 62 31 2.0 7.0 0.00 0.00 0.00 54 1016.8